{"data":{"norad_id":56877,"intl_designator":"2023-083B","name":"STARLINK-6209","alt_names":[],"object_type":"PAYLOAD","status":"ACTIVE","operator":null,"country":"US","launch_date":"2023-06-12","launch_site_code":"AFETR","launch_vehicle":null,"mission":null,"orbit_class":"UNKNOWN","rcs_meters":null,"size_class":null,"mass_kg":null,"dimensions":null,"purposes":["comms"],"wikipedia_slug":null,"has_3d_model":false,"image_url":null,"decayed_at":null,"tle_current":{"epoch":"2026-09-20T17:34:52.946400Z","epoch_age_seconds":97739,"freshness":"FRESH","line1":"1 56877U 23083B   26263.73255725  .00000663  00000+0  33629-4 0  9995","line2":"2 56877  43.0029  63.3554 0001933 249.3340 110.7305 15.27570768181465","mean_motion":15.27570768,"eccentricity":0.0001933,"inclination_deg":43.0029,"raan_deg":63.3554,"arg_perigee_deg":249.334,"mean_anomaly_deg":110.7305,"bstar":3.3629e-5,"rev_number":18146,"period_min":94.267318422527,"perigee_km":481.75046749211,"apogee_km":484.40301272403,"semimajor_km":6861.2137401081,"source":"CELESTRAK","updated_at":"2026-09-21T09:00:33.519221Z"}}}